Weather History for Pinedale, WY

Change the Weather History Date:

Saturday, September 21, 2013

  Actual Average (KBPI) Record (KBPI)
Temperature  
Mean Temperature 50 °F 48 °F  
Max Temperature 69 °F 66 °F 77 °F (2012)
Min Temperature 32 °F 30 °F 9 °F (1983)
Degree Days  
Heating Degree Days 14 17  
Month to date heating degree days 285  
Since 1 July heating degree days 578  
Cooling Degree Days 0 0  
Month to date cooling degree days 0  
Year to date cooling degree days 35  
Moisture  
Dew Point 29 °F    
Average Humidity 55    
Maximum Humidity 100    
Minimum Humidity 15    
Precipitation  
Precipitation 0.00 in 0.03 in 0.40 in (1997)
Month to date precipitation 0.54  
Year to date precipitation 5.20  
Sea Level Pressure  
Sea Level Pressure 30.01 in    
Wind  
Wind Speed 6 mph (SW)    
Max Wind Speed 20 mph    
Max Gust Speed 26 mph    
Visibility 10 miles    
Events      
T = Trace of Precipitation, MM = Missing Value Source: NWS Daily Summary

Daily Weather History Graph

Daily Weather History Graph

Search for Another Location

Airport:

Trip Planner

Search our weather history database for the weather conditions in past years. The results will help you decide how hot, cold, wet, or windy it might be!

Date:

Astronomy

Sep. 21, 2013 Rise Set
Actual Time 7:05 AM MDT 7:17 PM MDT
Civil Twilight 6:37 AM MDT 7:45 PM MDT
Nautical Twilight 6:04 AM MDT 8:19 PM MDT
Astronomical Twilight 5:30 AM MDT 8:52 PM MDT
Moon 8:25 PM MDT (9/21) 9:32 AM MDT (9/21)
Length of Visible Light 13h 08m
Length of Day
12h 11m
Waning Gibbous, 94% of the Moon is Illuminated
Sep 21
Waning Gibbous
Sep 26
Last Quarter
Oct 4
New
Oct 11
First Quarter
Oct 18
Full

Hourly Weather History & Observations

Time (MDT) Temp. Windchill Dew Point Humidity Pressure Visibility Wind Dir Wind Speed Gust Speed Precip Events Conditions
12:15 AM 35.6 °F 31.7 °F 33.8 °F 93% 30.12 in 10.0 mi West 4.6 mph - N/A   Clear
12:35 AM 35.6 °F 30.7 °F 33.8 °F 93% 30.12 in 10.0 mi NW 5.8 mph - N/A   Clear
12:55 AM 33.8 °F 29.6 °F 33.8 °F 100% 30.12 in 10.0 mi WNW 4.6 mph - N/A   Clear
1:15 AM 33.8 °F 30.8 °F 33.8 °F 100% 30.11 in 10.0 mi NW 3.5 mph - N/A   Clear
1:35 AM 33.8 °F 29.6 °F 32.0 °F 93% 30.11 in 10.0 mi WNW 4.6 mph - N/A   Clear
1:55 AM 33.8 °F 28.6 °F 32.0 °F 93% 30.11 in 10.0 mi WNW 5.8 mph - N/A   Clear
2:15 AM 32.0 °F 25.6 °F 32.0 °F 100% 30.11 in 10.0 mi West 6.9 mph - N/A   Clear
2:35 AM 32.0 °F 26.4 °F 32.0 °F 100% 30.11 in 10.0 mi WNW 5.8 mph - N/A   Clear
2:55 AM 33.8 °F 29.6 °F 32.0 °F 93% 30.10 in 10.0 mi NW 4.6 mph - N/A   Clear
3:15 AM 33.8 °F 28.6 °F 32.0 °F 93% 30.10 in 10.0 mi West 5.8 mph - N/A   Clear
3:35 AM 32.0 °F 25.6 °F 32.0 °F 100% 30.09 in 10.0 mi West 6.9 mph - N/A   Clear
3:55 AM 32.0 °F 26.4 °F 32.0 °F 100% 30.09 in 10.0 mi West 5.8 mph - N/A   Clear
4:15 AM 32.0 °F 26.4 °F 32.0 °F 100% 30.09 in 10.0 mi WNW 5.8 mph - N/A   Clear
4:35 AM 32.0 °F 26.4 °F 32.0 °F 100% 30.09 in 10.0 mi WNW 5.8 mph - N/A   Clear
4:55 AM 32.0 °F 26.4 °F 32.0 °F 100% 30.09 in 10.0 mi West 5.8 mph - N/A   Clear
5:15 AM 32.0 °F 26.4 °F 32.0 °F 100% 30.09 in 10.0 mi WNW 5.8 mph - N/A   Clear
5:35 AM 32.0 °F 27.5 °F 30.2 °F 93% 30.09 in 10.0 mi West 4.6 mph - N/A   Scattered Clouds
5:55 AM 32.0 °F 27.5 °F 32.0 °F 100% 30.09 in 10.0 mi West 4.6 mph - N/A   Mostly Cloudy
6:15 AM 32.0 °F 28.7 °F 32.0 °F 100% 30.09 in 10.0 mi WNW 3.5 mph - N/A   Mostly Cloudy
6:35 AM 32.0 °F 27.5 °F 32.0 °F 100% 30.09 in 10.0 mi WNW 4.6 mph - N/A   Scattered Clouds
6:55 AM 32.0 °F 27.5 °F 32.0 °F 100% 30.10 in 10.0 mi West 4.6 mph - N/A   Clear
7:15 AM 32.0 °F 26.4 °F 30.2 °F 93% 30.10 in 10.0 mi West 5.8 mph - N/A   Clear
7:35 AM 32.0 °F 27.5 °F 32.0 °F 100% 30.09 in 10.0 mi SW 4.6 mph - N/A   Clear
7:55 AM 33.8 °F 30.8 °F 32.0 °F 93% 30.09 in 10.0 mi NW 3.5 mph - N/A   Clear
8:15 AM 37.4 °F - 32.0 °F 81% 30.09 in 10.0 mi Calm Calm - N/A   Clear
8:35 AM 41.0 °F - 32.0 °F 70% 30.09 in 10.0 mi Calm Calm - N/A   Clear
8:55 AM 44.6 °F - 32.0 °F 61% 30.09 in 10.0 mi Calm Calm - N/A   Clear
9:15 AM 48.2 °F - 32.0 °F 54% 30.09 in 10.0 mi Calm Calm - N/A   Clear
9:35 AM 53.6 °F - 32.0 °F 44% 30.08 in 10.0 mi ESE 5.8 mph - N/A   Clear
9:55 AM 55.4 °F - 32.0 °F 41% 30.08 in 10.0 mi ESE 6.9 mph - N/A   Clear
10:15 AM 59.0 °F - 30.2 °F 34% 30.08 in 10.0 mi SSE 9.2 mph - N/A   Clear
10:35 AM 60.8 °F - 30.2 °F 31% 30.07 in 10.0 mi SSE 8.1 mph - N/A   Clear
10:55 AM 62.6 °F - 30.2 °F 30% 30.07 in 10.0 mi South 10.4 mph - N/A   Clear
11:15 AM 62.6 °F - 30.2 °F 30% 30.06 in 10.0 mi South 13.8 mph - N/A   Clear
11:35 AM 62.6 °F - 30.2 °F 30% 30.05 in 10.0 mi SSW 12.7 mph 18.4 mph N/A   Clear
11:55 AM 64.4 °F - 30.2 °F 28% 30.05 in 10.0 mi South 13.8 mph 17.3 mph N/A   Clear
12:15 PM 64.4 °F - 30.2 °F 28% 30.05 in 10.0 mi SSW 11.5 mph 19.6 mph N/A   Clear
12:35 PM 66.2 °F - 28.4 °F 24% 30.03 in 10.0 mi SW 12.7 mph 18.4 mph N/A   Clear
12:55 PM 68.0 °F - 26.6 °F 21% 30.02 in 10.0 mi South 10.4 mph 17.3 mph N/A   Clear
1:15 PM 68.0 °F - 24.8 °F 20% 30.01 in 10.0 mi South 11.5 mph 17.3 mph N/A   Clear
1:35 PM 68.0 °F - 26.6 °F 21% 30.01 in 10.0 mi SSW 9.2 mph 17.3 mph N/A   Clear
1:55 PM 68.0 °F - 28.4 °F 23% 30.00 in 7.0 mi SW 9.2 mph 23.0 mph N/A   Clear
2:15 PM 68.0 °F - 28.4 °F 23% 29.98 in 10.0 mi South 6.9 mph - N/A   Clear
2:35 PM 68.0 °F - 26.6 °F 21% 29.97 in 7.0 mi South 11.5 mph 20.7 mph N/A   Clear
2:55 PM 69.8 °F - 24.8 °F 18% 29.97 in 7.0 mi South 16.1 mph 21.9 mph N/A   Clear
3:15 PM 69.8 °F - 23.0 °F 17% 29.95 in 10.0 mi SW 11.5 mph 21.9 mph N/A   Clear
3:35 PM 69.8 °F - 23.0 °F 17% 29.95 in 10.0 mi South 15.0 mph 20.7 mph N/A   Clear
3:55 PM 69.8 °F - 23.0 °F 17% 29.94 in 10.0 mi South 12.7 mph 23.0 mph N/A   Clear
4:15 PM 69.8 °F - 21.2 °F 16% 29.93 in 10.0 mi South 19.6 mph 26.5 mph N/A   Clear
4:35 PM 69.8 °F - 21.2 °F 16% 29.93 in 10.0 mi SSW 16.1 mph 25.3 mph N/A   Clear
4:55 PM 69.8 °F - 19.4 °F 15% 29.93 in 10.0 mi SSW 12.7 mph 25.3 mph N/A   Clear
5:15 PM 69.8 °F - 19.4 °F 15% 29.92 in 10.0 mi South 12.7 mph 21.9 mph N/A   Clear
5:35 PM 69.8 °F - 19.4 °F 15% 29.91 in 10.0 mi South 12.7 mph 25.3 mph N/A   Clear
5:55 PM 69.8 °F - 19.4 °F 15% 29.91 in 10.0 mi South 17.3 mph - N/A   Clear
6:15 PM 68.0 °F - 19.4 °F 16% 29.90 in 10.0 mi SSW 12.7 mph - N/A   Clear
6:35 PM 68.0 °F - 21.2 °F 17% 29.90 in 10.0 mi SSW 9.2 mph 18.4 mph N/A   Clear
6:55 PM 64.4 °F - 23.0 °F 21% 29.89 in 10.0 mi SSW 4.6 mph - N/A   Clear
7:15 PM 62.6 °F - 24.8 °F 24% 29.88 in 10.0 mi South 3.5 mph - N/A   Clear
7:35 PM 60.8 °F - 26.6 °F 27% 29.88 in 7.0 mi Calm Calm - N/A   Clear
7:55 PM 59.0 °F - 26.6 °F 29% 29.88 in 10.0 mi Calm Calm - N/A   Clear
8:15 PM 55.4 °F - 30.2 °F 38% 29.88 in 10.0 mi NE 3.5 mph - N/A   Clear
8:35 PM 51.8 °F - 30.2 °F 44% 29.88 in 10.0 mi ENE 4.6 mph - N/A   Clear
8:55 PM 51.8 °F - 30.2 °F 44% 29.88 in 10.0 mi NNE 3.5 mph - N/A   Clear
9:15 PM 50.0 °F - 30.2 °F 47% 29.87 in 10.0 mi Calm Calm - N/A   Clear
9:35 PM 48.2 °F - 32.0 °F 54% 29.87 in 10.0 mi Calm Calm - N/A   Clear
9:55 PM 44.6 °F - 32.0 °F 61% 29.88 in 10.0 mi Calm Calm - N/A   Scattered Clouds
10:15 PM 46.4 °F 42.9 °F 32.0 °F 57% 29.88 in 10.0 mi SE 6.9 mph - N/A   Mostly Cloudy
10:35 PM 46.4 °F 44.3 °F 32.0 °F 57% 29.88 in 10.0 mi East 4.6 mph - N/A   Mostly Cloudy
10:55 PM 46.4 °F 42.9 °F 32.0 °F 57% 29.87 in 10.0 mi ESE 6.9 mph - N/A   Mostly Cloudy
11:15 PM 48.2 °F - 32.0 °F 54% 29.87 in 10.0 mi ESE 6.9 mph - N/A   Overcast
11:35 PM 46.4 °F 43.5 °F 32.0 °F 57% 29.87 in 10.0 mi ESE 5.8 mph - N/A   Scattered Clouds
11:55 PM 48.2 °F - 32.0 °F 54% 29.87 in 10.0 mi Calm Calm - N/A   Clear